| time (UTC) | temp F | wind direction | speed knots | gust knots | rain 1hr in | rain 24hr in | rain mn in | humidity % | barometer mb |
| 20260505041330 | 69 | 16 | 1.7 | 2.6 | 0.00 | 0.00 | 0.00 | 35 | 1003.9 |
| 20260505040827 | 70 | 248 | 1.7 | 4.3 | 0.00 | 0.00 | 0.00 | 34 | 1003.8 |
| 20260505040325 | 70 | 244 | 1.7 | 4.3 | 0.00 | 0.00 | 0.00 | 35 | 1004.0 |
| 20260505035821 | 70 | 221 | 3.5 | 3.5 | 0.00 | 0.00 | 0.00 | 34 | 1003.7 |
| 20260505035600 | 70 | 187 | 1.7 | 4.3 | 0.00 | 0.00 | 0.00 | 35 | 1003.8 |
| 20260505035213 | 71 | 188 | 2.6 | 3.5 | 0.00 | 0.00 | 0.00 | 35 | 1004.0 |
| 20260505034710 | 71 | 197 | 1.7 | 3.5 | 0.00 | 0.00 | 0.00 | 35 | 1003.9 |
| 20260505034207 | 71 | 255 | 0.9 | 3.5 | 0.00 | 0.00 | 0.00 | 35 | 1003.8 |
| 20260505034138 | 71 | 275 | 1.7 | 3.5 | 0.00 | 0.00 | 0.00 | 35 | 1003.9 |
| 20260505033634 | 71 | 188 | 0.0 | 3.5 | 0.00 | 0.00 | 0.00 | 38 | 1003.8 |
| 20260505033132 | 71 | 354 | 2.6 | 6.1 | 0.00 | 0.00 | 0.00 | 37 | 1004.1 |
| 20260505032907 | 71 | 325 | 1.7 | 3.5 | 0.00 | 0.00 | 0.00 | 43 | 1003.8 |
| 20260505032403 | 71 | 212 | 1.7 | 2.6 | 0.00 | 0.00 | 0.00 | 51 | 1003.6 |
| 20260505031900 | 71 | 221 | 0.9 | 1.7 | 0.00 | 0.00 | 0.00 | 51 | 1003.5 |
| 20260505031356 | 70 | 202 | 1.7 | 3.5 | 0.00 | 0.00 | 0.00 | 51 | 1003.1 |
| 20260505031246 | 70 | 201 | 0.9 | 1.7 | 0.00 | 0.00 | 0.00 | 52 | 1003.4 |
| 20260505031143 | 70 | 246 | 1.7 | 1.7 | 0.00 | 0.00 | 0.00 | 52 | 1003.3 |
| 20260505030854 | 69 | 6 | 0.0 | 5.2 | 0.00 | 0.00 | 0.00 | 53 | 1003.2 |
| 20260505030755 | 69 | 227 | 4.3 | 4.3 | 0.00 | 0.00 | 0.00 | 54 | 1003.0 |
| 20260505030709 | 69 | 227 | 4.3 | 4.3 | 0.00 | 0.00 | 0.00 | 54 | 1003.0 |
| 20260505030205 | 69 | 8 | 1.7 | 2.6 | 0.00 | 0.00 | 0.00 | 57 | 1003.0 |
| 20260505025701 | 69 | 37 | 0.0 | 2.6 | 0.00 | 0.00 | 0.00 | 59 | 1002.6 |
| 20260505025159 | 69 | 338 | 1.7 | 1.7 | 0.00 | 0.00 | 0.00 | 59 | 1002.7 |
| 20260505024657 | 68 | 190 | 1.7 | 4.3 | 0.00 | 0.00 | 0.00 | 60 | 1002.6 |
| 20260505024154 | 67 | 351 | 1.7 | 2.6 | 0.00 | 0.00 | 0.00 | 66 | 1002.2 |
| 20260505023651 | 68 | 321 | 0.9 | 0.9 | 0.00 | 0.00 | 0.00 | 64 | 1036.0 |
| 20260505023148 | 68 | 311 | 0.0 | 1.7 | 0.00 | 0.00 | 0.00 | 64 | 1035.6 |
| 20260505022727 | 68 | 345 | 0.9 | 1.7 | 0.00 | 0.00 | 0.00 | 65 | 1034.6 |
| 20260505022223 | 68 | 335 | 0.0 | 1.7 | 0.00 | 0.00 | 0.00 | 64 | 1034.6 |
| 20260505021720 | 68 | 358 | 0.0 | 0.0 | 0.00 | 0.00 | 0.00 | 62 | 1034.5 |
| 20260505021217 | 69 | 38 | 0.0 | 0.9 | 0.00 | 0.00 | 0.00 | 62 | 1034.3 |
| 20260505020713 | 69 | 35 | 0.0 | 1.7 | 0.00 | 0.00 | 0.00 | 62 | 1035.4 |
| 20260505020208 | 69 | 243 | 0.0 | 1.7 | 0.00 | 0.00 | 0.00 | 60 | 1035.2 |
| 20260505015907 | 69 | 231 | 0.0 | 0.0 | 0.00 | 0.00 | 0.00 | 60 | 1035.0 |
| 20260505015405 | 70 | 162 | 0.0 | 0.9 | 0.00 | 0.00 | 0.00 | 59 | 1035.0 |
| 20260505014902 | 70 | 238 | 0.0 | 1.7 | 0.00 | 0.00 | 0.00 | 58 | 1035.2 |
| 20260505014359 | 70 | 228 | 0.0 | 1.7 | 0.00 | 0.00 | 0.00 | 57 | 1035.0 |
| 20260505013855 | 71 | 163 | 0.9 | 1.7 | 0.00 | 0.00 | 0.00 | 57 | 1035.0 |
| 20260505013352 | 71 | 190 | 1.7 | 1.7 | 0.00 | 0.00 | 0.00 | 57 | 1034.8 |
| 20260505012851 | 72 | 175 | 1.7 | 2.6 | 0.00 | 0.00 | 0.00 | 56 | 1034.7 |
| 20260505012348 | 72 | 179 | 2.6 | 3.5 | 0.00 | 0.00 | 0.00 | 55 | 1034.7 |
| 20260505012030 | 73 | 184 | 2.6 | 3.5 | 0.00 | 0.00 | 0.00 | 55 | 1031.6 |
| 20260505011525 | 74 | 176 | 3.5 | 3.5 | 0.00 | 0.00 | 0.00 | 54 | 1031.7 |
| 20260505011023 | 75 | 179 | 2.6 | 3.5 | 0.00 | 0.00 | 0.00 | 49 | 1031.6 |
| 20260505010518 | 75 | 180 | 2.6 | 3.5 | 0.00 | 0.00 | 0.00 | 48 | 1031.6 |
| 20260505010414 | 75 | 182 | 3.5 | 3.5 | 0.00 | 0.00 | 0.00 | 48 | 1031.6 |
| 20260505010402 | 76 | 182 | 2.6 | 3.5 | 0.00 | 0.00 | 0.00 | 48 | 1031.6 |
| 20260505010252 | 76 | 177 | 2.6 | 2.6 | 0.00 | 0.00 | 0.00 | 48 | 1031.4 |
| 20260505005748 | 77 | 181 | 2.6 | 3.5 | 0.00 | 0.00 | 0.00 | 45 | 1031.5 |
| 20260505005546 | 77 | 181 | 2.6 | 3.5 | 0.00 | 0.00 | 0.00 | 45 | 1031.5 |
| 20260505005044 | 77 | 184 | 2.6 | 2.6 | 0.00 | 0.00 | 0.00 | 45 | 1031.4 |
| 20260505004541 | 78 | 191 | 1.7 | 2.6 | 0.00 | 0.00 | 0.00 | 44 | 1031.2 |
| 20260505004037 | 78 | 180 | 3.5 | 3.5 | 0.00 | 0.00 | 0.00 | 43 | 1031.4 |
| 20260505003535 | 78 | 204 | 2.6 | 2.6 | 0.00 | 0.00 | 0.00 | 41 | 1031.2 |
| 20260505003032 | 79 | 222 | 0.9 | 2.6 | 0.00 | 0.00 | 0.00 | 42 | 1031.3 |
| 20260505002532 | 79 | 183 | 0.9 | 3.5 | 0.00 | 0.00 | 0.00 | 40 | 1031.2 |
| 20260505002032 | 79 | 197 | 0.0 | 4.3 | 0.00 | 0.00 | 0.00 | 41 | 1031.3 |
| 20260505001528 | 79 | 74 | 0.0 | 1.7 | 0.00 | 0.00 | 0.00 | 41 | 1031.2 |
| 20260505001025 | 79 | 306 | 0.0 | 1.7 | 0.00 | 0.00 | 0.00 | 42 | 997.0 |
| 20260505000523 | 80 | 100 | 0.0 | 3.5 | 0.00 | 0.00 | 0.00 | 41 | 997.0 |
| 20260505000020 | 80 | 37 | 1.7 | 3.5 | 0.00 | 0.00 | 0.00 | 41 | 996.8 |
| 20260504235517 | 80 | 77 | 1.7 | 4.3 | 0.00 | 0.00 | 0.00 | 41 | 996.9 |
| 20260504235013 | 80 | 52 | 0.9 | 1.7 | 0.00 | 0.00 | 0.00 | 42 | 996.9 |
| 20260504234511 | 80 | 37 | 1.7 | 2.6 | 0.00 | 0.00 | 0.00 | 41 | 997.1 |
| 20260504234008 | 80 | 70 | 1.7 | 2.6 | 0.00 | 0.00 | 0.00 | 41 | 996.8 |
| 20260504233502 | 80 | 53 | 1.7 | 4.3 | 0.00 | 0.00 | 0.00 | 40 | 997.0 |
| 20260504233000 | 80 | 51 | 5.2 | 5.2 | 0.00 | 0.00 | 0.00 | 41 | 996.8 |
| 20260504232457 | 80 | 48 | 3.5 | 3.5 | 0.00 | 0.00 | 0.00 | 40 | 996.9 |
| 20260504231954 | 80 | 17 | 1.7 | 4.3 | 0.00 | 0.00 | 0.00 | 40 | 997.1 |
| 20260504231450 | 81 | 36 | 0.9 | 4.3 | 0.00 | 0.00 | 0.00 | 40 | 996.8 |
| 20260504230947 | 81 | 25 | 1.7 | 3.5 | 0.00 | 0.00 | 0.00 | 40 | 997.0 |
| 20260504230443 | 81 | 37 | 0.0 | 3.5 | 0.00 | 0.00 | 0.00 | 41 | 996.9 |
| 20260504225943 | 81 | 47 | 2.6 | 3.5 | 0.00 | 0.00 | 0.00 | 39 | 997.0 |
| 20260504225439 | 81 | 16 | 2.6 | 3.5 | 0.00 | 0.00 | 0.00 | 38 | 996.8 |
| 20260504224936 | 81 | 34 | 5.2 | 7.0 | 0.00 | 0.00 | 0.00 | 38 | 996.8 |
| 20260504212937 | 79 | 347 | 0.0 | 0.0 | 0.24 | 0.04 | 0.04 | 48 | 1001.5 |
| 20260504212433 | 79 | 347 | 0.0 | 0.0 | 0.24 | 0.04 | 0.04 | 48 | 1001.5 |
| 20260504211931 | 79 | 347 | 0.0 | 0.0 | 0.24 | 0.04 | 0.04 | 48 | 1001.5 |
| 20260504211427 | 81 | 66 | 0.0 | 0.0 | 0.12 | 0.02 | 0.02 | 43 | 1001.5 |
| 20260504210924 | 83 | 67 | 0.0 | 0.0 | 0.05 | 0.01 | 0.01 | 42 | 1001.4 |
| 20260504210421 | 82 | 357 | 0.9 | 0.9 | 0.00 | 0.00 | 0.00 | 43 | 1001.8 |
| 20260504205918 | 83 | 353 | 0.0 | 0.0 | 0.00 | 0.00 | 0.00 | 41 | 1001.5 |
| 20260504205416 | 82 | 353 | 2.6 | 2.6 | 0.00 | 0.00 | 0.00 | 44 | 1001.4 |
| 20260504204914 | 83 | 352 | 1.7 | 2.6 | 0.00 | 0.00 | 0.00 | 41 | 1001.6 |
| 20260504204412 | 82 | 355 | 0.9 | 1.7 | 0.00 | 0.00 | 0.00 | 42 | 1001.5 |
| 20260504203911 | 82 | 349 | 2.6 | 4.3 | 0.00 | 0.00 | 0.00 | 42 | 1001.7 |
| 20260504203408 | 82 | 344 | 2.6 | 2.6 | 0.00 | 0.00 | 0.00 | 41 | 1001.7 |
| 20260504202903 | 82 | 328 | 3.5 | 4.3 | 0.00 | 0.00 | 0.00 | 41 | 1001.8 |
| 20260504202401 | 83 | 268 | 2.6 | 2.6 | 0.00 | 0.00 | 0.00 | 42 | 1001.8 |
| 20260504201857 | 82 | 225 | 3.5 | 5.2 | 0.00 | 0.00 | 0.00 | 41 | 1002.1 |
| 20260504201355 | 83 | 333 | 1.7 | 1.7 | 0.00 | 0.00 | 0.00 | 44 | 1002.1 |
| 20260504200852 | 82 | 265 | 2.6 | 4.3 | 0.00 | 0.00 | 0.00 | 43 | 1002.0 |
| 20260504200348 | 81 | 238 | 1.7 | 1.7 | 0.00 | 0.00 | 0.00 | 42 | 1002.1 |
| 20260504195845 | 82 | 316 | 0.0 | 0.0 | 0.00 | 0.00 | 0.00 | 45 | 1002.0 |
| 20260504195340 | 82 | 222 | 1.7 | 2.6 | 0.00 | 0.00 | 0.00 | 42 | 1002.1 |
| 20260504194838 | 81 | 259 | 2.6 | 4.3 | 0.00 | 0.00 | 0.00 | 43 | 1002.2 |
| 20260504194333 | 81 | 167 | 1.7 | 2.6 | 0.00 | 0.00 | 0.00 | 43 | 1002.2 |
| 20260504193829 | 81 | 183 | 3.5 | 4.3 | 0.00 | 0.00 | 0.00 | 43 | 1002.2 |
| 20260504193327 | 82 | 180 | 1.7 | 2.6 | 0.00 | 0.00 | 0.00 | 44 | 1002.1 |
| 20260504192826 | 81 | 151 | 4.3 | 6.1 | 0.00 | 0.00 | 0.00 | 42 | 1002.0 |
| 20260504192323 | 81 | 313 | 0.0 | 0.9 | 0.00 | 0.00 | 0.00 | 48 | 1002.1 |
| 20260504191822 | 81 | 307 | 0.9 | 0.9 | 0.00 | 0.00 | 0.00 | 43 | 1002.0 |
| 20260504191319 | 81 | 291 | 2.6 | 2.6 | 0.00 | 0.00 | 0.00 | 45 | 1002.1 |
| 20260504190814 | 80 | 336 | 0.0 | 0.9 | 0.00 | 0.00 | 0.00 | 48 | 1002.1 |
| 20260504190310 | 81 | 147 | 4.3 | 6.1 | 0.00 | 0.00 | 0.00 | 45 | 1002.1 |
| 20260504185807 | 80 | 310 | 0.0 | 0.9 | 0.00 | 0.00 | 0.00 | 47 | 1002.1 |
| 20260504185305 | 80 | 287 | 1.7 | 2.6 | 0.00 | 0.00 | 0.00 | 46 | 1002.2 |
| 20260504184800 | 80 | 260 | 2.6 | 2.6 | 0.00 | 0.00 | 0.00 | 46 | 1002.3 |
| 20260504184256 | 80 | 141 | 2.6 | 4.3 | 0.00 | 0.00 | 0.00 | 48 | 1002.1 |
| 20260504183752 | 79 | 218 | 2.6 | 2.6 | 0.00 | 0.00 | 0.00 | 47 | 1002.1 |
| 20260504183249 | 79 | 226 | 5.2 | 6.1 | 0.00 | 0.00 | 0.00 | 46 | 1002.1 |
| 20260504182747 | 79 | 201 | 9.6 | 12.2 | 0.00 | 0.00 | 0.00 | 45 | 1002.2 |
| 20260504182244 | 79 | 161 | 7.8 | 8.7 | 0.00 | 0.00 | 0.00 | 44 | 1002.4 |
| 20260504181742 | 80 | 220 | 1.7 | 2.6 | 0.00 | 0.00 | 0.00 | 47 | 1002.4 |
| 20260504181239 | 80 | 255 | 1.7 | 1.7 | 0.00 | 0.00 | 0.00 | 45 | 1002.3 |
| 20260504180738 | 79 | 312 | 0.0 | 0.0 | 0.00 | 0.00 | 0.00 | 50 | 1002.5 |
| 20260504180236 | 79 | 214 | 5.2 | 6.1 | 0.00 | 0.00 | 0.00 | 47 | 1002.4 |
| 20260504175733 | 78 | 188 | 2.6 | 4.3 | 0.00 | 0.00 | 0.00 | 49 | 1002.5 |
| 20260504175230 | 79 | 265 | 0.9 | 1.7 | 0.00 | 0.00 | 0.00 | 47 | 1002.5 |
| 20260504174728 | 79 | 196 | 4.3 | 5.2 | 0.00 | 0.00 | 0.00 | 49 | 1002.4 |
| 20260504174226 | 78 | 343 | 2.6 | 2.6 | 0.00 | 0.00 | 0.00 | 47 | 1002.4 |
| 20260504173722 | 78 | 157 | 2.6 | 2.6 | 0.00 | 0.00 | 0.00 | 47 | 1002.6 |
| 20260504173219 | 79 | 206 | 4.3 | 7.8 | 0.00 | 0.00 | 0.00 | 47 | 1002.6 |
| 20260504172716 | 78 | 226 | 2.6 | 4.3 | 0.00 | 0.00 | 0.00 | 47 | 1002.5 |
| 20260504172212 | 77 | 177 | 2.6 | 2.6 | 0.00 | 0.00 | 0.00 | 48 | 1002.7 |
| 20260504171709 | 77 | 219 | 5.2 | 5.2 | 0.00 | 0.00 | 0.00 | 48 | 1002.6 |
| 20260504171206 | 77 | 174 | 3.5 | 6.1 | 0.00 | 0.00 | 0.00 | 50 | 1002.7 |
| 20260504170702 | 77 | 186 | 2.6 | 2.6 | 0.00 | 0.00 | 0.00 | 50 | 1002.6 |
| 20260504170200 | 76 | 285 | 0.9 | 0.9 | 0.00 | 0.00 | 0.00 | 48 | 1002.8 |
| 20260504160118 | 74 | 325 | 0.9 | 1.7 | 0.00 | 0.00 | 0.00 | 55 | 1002.8 |
| 20260504151039 | 71 | 195 | 2.6 | 2.6 | 0.00 | 0.00 | 0.00 | 54 | 1002.9 |
| 20260504150537 | 71 | 358 | 1.7 | 2.6 | 0.00 | 0.00 | 0.00 | 57 | 1002.9 |
| 20260504141003 | 69 | 297 | 0.9 | 1.7 | 0.00 | 0.00 | 0.00 | 60 | 1003.2 |
| 20260504140459 | 68 | 215 | 2.6 | 4.3 | 0.00 | 0.00 | 0.00 | 60 | 1003.1 |
| 20260504130424 | 65 | 295 | 0.9 | 1.7 | 0.00 | 0.00 | 0.00 | 62 | 1003.3 |
| 20260504110311 | 54 | 306 | 0.0 | 0.0 | 0.00 | 0.00 | 0.00 | 85 | 1003.0 |
| 20260504100229 | 54 | 312 | 0.0 | 0.0 | 0.00 | 0.00 | 0.00 | 85 | 1004.3 |
| 20260504081627 | 62 | 326 | 0.0 | 0.9 | 0.00 | 0.00 | 0.00 | 64 | 1005.0 |
| 20260504081123 | 62 | 330 | 0.0 | 0.0 | 0.00 | 0.00 | 0.00 | 63 | 1005.1 |
| 20260504080620 | 64 | 328 | 0.0 | 0.0 | 0.00 | 0.00 | 0.00 | 61 | 1005.0 |
| 20260504080116 | 64 | 328 | 0.0 | 0.9 | 0.00 | 0.00 | 0.00 | 58 | 1004.9 |
| 20260504050432 | 63 | 328 | 0.0 | 0.0 | 0.00 | 0.00 | 0.00 | 67 | 1006.6 |
| 20260504045930 | 64 | 328 | 0.0 | 0.0 | 0.00 | 0.00 | 0.00 | 69 | 1006.2 |
| 20260504045425 | 65 | 322 | 0.0 | 0.0 | 0.00 | 0.00 | 0.00 | 66 | 1006.6 |
| 20260504044916 | 65 | 321 | 0.0 | 0.0 | 0.00 | 0.00 | 0.00 | 61 | 1006.8 |
| 20260504044414 | 66 | 317 | 0.0 | 0.0 | 0.00 | 0.00 | 0.00 | 59 | 1006.8 |
| 20260504043911 | 67 | 315 | 0.0 | 0.0 | 0.00 | 0.00 | 0.00 | 59 | 1006.9 |
| 20260504043408 | 68 | 331 | 0.0 | 0.0 | 0.00 | 0.00 | 0.00 | 56 | 1006.9 |
| 20260504042905 | 68 | 104 | 2.6 | 2.6 | 0.00 | 0.00 | 0.00 | 54 | 1007.1 |
| 20260504042401 | 67 | 308 | 0.9 | 1.7 | 0.00 | 0.00 | 0.00 | 54 | 1007.3 |